This is the latest recevied weather packets stored in our database for station/object AB4KY. If no packets are shown the sender has not sent any weather packets the latest 10 day(s).
| Time | Temp. | Humidity | Pressure | Rain* | Wind** | Luminosity | Snow |
|---|---|---|---|---|---|---|---|
| 1787848261 | 27.78° C | 74% | 1014 hPa | 0 mm | - | 576 W/m² | - |
| 1787847956 | 27.78° C | 72% | 1014 hPa | 0 mm | - | 651 W/m² | - |
| 1787847655 | 27.22° C | 73% | 1013.9 hPa | 0 mm | - | 640 W/m² | - |
| 1787847351 | 27.78° C | 76% | 1013.9 hPa | 0 mm | - | 608 W/m² | - |
| 1787847047 | 27.78° C | 78% | 1013.8 hPa | 0 mm | - | 527 W/m² | - |
| 1787846742 | 26.67° C | 76% | 1014.1 hPa | 0 mm | - | 601 W/m² | - |
| 1787846438 | 27.22° C | 78% | 1013.9 hPa | 0 mm | - | 568 W/m² | - |
| 1787846133 | 27.22° C | 77% | 1014 hPa | 0 mm | - | 599 W/m² | - |
| 1787845828 | 26.11° C | 79% | 1013.9 hPa | 0 mm | - | 614 W/m² | - |
| 1787845524 | 26.11° C | 79% | 1014 hPa | 0 mm | - | 606 W/m² | - |
| 1787845219 | 26.11° C | 80% | 1013.8 hPa | 0 mm | - | 569 W/m² | - |
| 1787844915 | 26.11° C | 81% | 1013.9 hPa | 0 mm | - | 597 W/m² | - |
| 1787844614 | 25.56° C | 80% | 1014 hPa | 0 mm | - | 558 W/m² | - |
| 1787844309 | 26.67° C | 80% | 1013.9 hPa | 0 mm | - | 595 W/m² | - |
| 1787844009 | 26.11° C | 79% | 1014 hPa | 0 mm | - | 539 W/m² | - |
| 1787843709 | 25.56° C | 81% | 1013.7 hPa | 0 mm | - | 549 W/m² | - |
| 1787843404 | 25.56° C | 81% | 1013.9 hPa | 0 mm | - | 477 W/m² | - |
| 1787843101 | 25° C | 82% | 1013.7 hPa | 0 mm | - | 497 W/m² | - |
| 1787842800 | 25.56° C | 81% | 1013.7 hPa | 0 mm | - | 459 W/m² | - |
| 1787842496 | 25.56° C | 84% | 1013.6 hPa | 0 mm | - | 500 W/m² | - |
| 1787842194 | 25° C | 82% | 1014 hPa | 0 mm | - | 531 W/m² | - |
| 1787841889 | 25° C | 84% | 1013.7 hPa | 0 mm | - | 499 W/m² | - |
| 1787841586 | 25° C | 84% | 1013.7 hPa | 0 mm | - | 470 W/m² | - |
| 1787841284 | 25° C | 86% | 1013.6 hPa | 0 mm | - | 448 W/m² | - |
| 1787840979 | 24.44° C | 85% | 1013.9 hPa | 0 mm | - | 429 W/m² | - |
* Rain latest hour (hover to see other rain measurements)
** Current wind speed in m/s (hover to see current wind gust speed)